RYR3WT EINN-LPPR

Flight info

Callsign RYR3WT
Flight time N/A
Altitude 37000
Route KURUM3A KURUM DCT MAPAG DCT TULTA/N0442F370 DCT KORUL DCT ELTEP/N0358F230 T328 ASPOR
Aircraft B738/M-SDE2E3FGHIRWXY/LB1

Departure

Time 2026-05-08 18:27
Airport Shannon Airport (EINN)

Arrival

Time N/A
Airport Francisco de Sá Carneiro Airport (LPPR)
Time Latitude Longitude Altitude Speed Heading
2026-05-08 17:49 52.69365 -8.91954 22 ft 0 kts 184°
2026-05-08 18:20 52.69369 -8.91953 24 ft 3 kts 184°
2026-05-08 18:20 52.69395 -8.91950 21 ft 4 kts 184°
2026-05-08 18:20 52.69417 -8.91947 23 ft 3 kts 185°
2026-05-08 18:21 52.69441 -8.91937 21 ft 4 kts 222°
2026-05-08 18:21 52.69451 -8.91905 21 ft 4 kts 286°
2026-05-08 18:21 52.69444 -8.91870 23 ft 1 kts 287°
2026-05-08 18:21 52.69444 -8.91869 22 ft 0 kts 287°
2026-05-08 18:24 52.69447 -8.91883 23 ft 4 kts 287°
2026-05-08 18:24 52.69463 -8.91984 23 ft 13 kts 283°
2026-05-08 18:24 52.69489 -8.92150 23 ft 15 kts 289°
2026-05-08 18:24 52.69531 -8.92308 22 ft 15 kts 298°
2026-05-08 18:25 52.69597 -8.92435 23 ft 15 kts 316°
2026-05-08 18:25 52.69679 -8.92570 22 ft 18 kts 315°
2026-05-08 18:25 52.69776 -8.92727 22 ft 20 kts 315°
2026-05-08 18:25 52.69859 -8.92861 29 ft 10 kts 316°
2026-05-08 18:26 52.69891 -8.92912 29 ft 5 kts 315°
2026-05-08 18:26 52.69917 -8.92955 34 ft 5 kts 315°
2026-05-08 18:26 52.69945 -8.92989 38 ft 6 kts 353°
2026-05-08 18:26 52.70017 -8.92876 36 ft 36 kts 52°
2026-05-08 18:27 52.70351 -8.92170 33 ft 117 kts 52°
2026-05-08 18:27 52.70745 -8.91305 51 ft 159 kts 50°
2026-05-08 18:27 52.71562 -8.89300 1263 ft 160 kts 65°
2026-05-08 18:27 52.71526 -8.87410 2108 ft 182 kts 111°
2026-05-08 18:28 52.70870 -8.85506 2878 ft 197 kts 112°
2026-05-08 18:28 52.70299 -8.83355 3454 ft 214 kts 108°
2026-05-08 18:28 52.69724 -8.80995 3994 ft 232 kts 113°
2026-05-08 18:28 52.68629 -8.78827 4451 ft 267 kts 142°
2026-05-08 18:29 52.66888 -8.77736 5580 ft 268 kts 167°
2026-05-08 18:29 52.65045 -8.77253 6734 ft 269 kts 170°
2026-05-08 18:29 52.63163 -8.76856 7675 ft 275 kts 171°
2026-05-08 18:29 52.61266 -8.76456 8736 ft 275 kts 171°
2026-05-08 18:30 52.59362 -8.76064 9738 ft 279 kts 172°
2026-05-08 18:30 52.57425 -8.75666 10591 ft 286 kts 172°
2026-05-08 18:30 52.55362 -8.75242 10863 ft 313 kts 172°
2026-05-08 18:30 52.53117 -8.74781 11152 ft 334 kts 172°
2026-05-08 18:31 52.50794 -8.74305 11949 ft 339 kts 173°
2026-05-08 18:31 52.48438 -8.73822 12808 ft 343 kts 173°
2026-05-08 18:31 52.46070 -8.73337 13817 ft 343 kts 173°
2026-05-08 18:31 52.43678 -8.72849 14490 ft 351 kts 173°
2026-05-08 18:32 52.41231 -8.72348 15239 ft 356 kts 174°
2026-05-08 18:32 52.38764 -8.71844 16090 ft 359 kts 174°
2026-05-08 18:32 52.36272 -8.71335 16929 ft 361 kts 174°
2026-05-08 18:32 52.33768 -8.70824 17749 ft 364 kts 175°
2026-05-08 18:33 52.31242 -8.70310 18524 ft 368 kts 175°
2026-05-08 18:33 52.28684 -8.69789 19204 ft 371 kts 175°
2026-05-08 18:33 52.26115 -8.69266 19908 ft 374 kts 175°
2026-05-08 18:33 52.23554 -8.68746 20592 ft 377 kts 175°
2026-05-08 18:34 52.20908 -8.68208 21284 ft 380 kts 175°
2026-05-08 18:34 52.18271 -8.67674 21896 ft 385 kts 175°
2026-05-08 18:34 52.15627 -8.67140 22480 ft 389 kts 175°
2026-05-08 18:34 52.12893 -8.66588 23112 ft 393 kts 175°
2026-05-08 18:35 52.10208 -8.66045 23705 ft 396 kts 175°
2026-05-08 18:35 52.07457 -8.65489 24216 ft 399 kts 175°
2026-05-08 18:35 52.04692 -8.64931 24749 ft 401 kts 176°
2026-05-08 18:35 52.01921 -8.64372 25278 ft 402 kts 176°
2026-05-08 18:36 51.99135 -8.63811 25785 ft 404 kts 176°
2026-05-08 18:36 51.96338 -8.63249 26264 ft 407 kts 176°
2026-05-08 18:36 51.93522 -8.62685 26754 ft 409 kts 176°
2026-05-08 18:36 51.90687 -8.62120 27242 ft 411 kts 176°
2026-05-08 18:37 51.87840 -8.61550 27700 ft 413 kts 176°
2026-05-08 18:37 51.84973 -8.60977 28134 ft 416 kts 176°
2026-05-08 18:37 51.82093 -8.60400 28562 ft 418 kts 176°
2026-05-08 18:37 51.79201 -8.59823 28990 ft 420 kts 176°
2026-05-08 18:38 51.76297 -8.59244 29411 ft 422 kts 176°
2026-05-08 18:38 51.73371 -8.58663 29825 ft 424 kts 176°
2026-05-08 18:38 51.70441 -8.58080 30292 ft 424 kts 175°
2026-05-08 18:38 51.67525 -8.57500 30822 ft 420 kts 175°
2026-05-08 18:39 51.64628 -8.56924 31359 ft 417 kts 176°
2026-05-08 18:39 51.61792 -8.56362 31838 ft 416 kts 176°
2026-05-08 18:39 51.58925 -8.55795 32251 ft 415 kts 176°
2026-05-08 18:39 51.56023 -8.55223 32711 ft 413 kts 176°
2026-05-08 18:40 51.53176 -8.54662 33184 ft 411 kts 176°
2026-05-08 18:40 51.50340 -8.54104 33665 ft 409 kts 176°
2026-05-08 18:40 51.47558 -8.53558 34072 ft 408 kts 175°
2026-05-08 18:40 51.44700 -8.52998 34393 ft 408 kts 175°
2026-05-08 18:41 51.41915 -8.52454 34649 ft 410 kts 175°
2026-05-08 18:41 51.39075 -8.51898 34930 ft 411 kts 175°
2026-05-08 18:41 51.36240 -8.51343 35259 ft 410 kts 175°
2026-05-08 18:41 51.33406 -8.50789 35566 ft 410 kts 175°
2026-05-08 18:42 51.30566 -8.50235 35850 ft 411 kts 175°
2026-05-08 18:42 51.27724 -8.49681 36117 ft 412 kts 175°
2026-05-08 18:42 51.24880 -8.49127 36410 ft 412 kts 175°
2026-05-08 18:42 51.22029 -8.48574 36721 ft 412 kts 175°
2026-05-08 18:43 51.19190 -8.48023 36999 ft 412 kts 175°
2026-05-08 18:43 51.16322 -8.47467 37049 ft 417 kts 175°
2026-05-08 18:43 51.10538 -8.46351 37050 ft 418 kts 175°
2026-05-08 18:44 51.04809 -8.45241 37050 ft 411 kts 175°
2026-05-08 18:44 50.99136 -8.44147 37054 ft 411 kts 175°
2026-05-08 18:45 50.93464 -8.43058 37057 ft 411 kts 175°
2026-05-08 18:45 50.87783 -8.41971 37058 ft 411 kts 175°
2026-05-08 18:46 50.82091 -8.40881 37050 ft 412 kts 175°
2026-05-08 18:46 50.76434 -8.39803 37050 ft 412 kts 175°
2026-05-08 18:47 50.70746 -8.38722 37052 ft 412 kts 175°
2026-05-08 18:47 50.65039 -8.37639 37043 ft 413 kts 175°
2026-05-08 18:48 50.59340 -8.36562 37045 ft 413 kts 175°
2026-05-08 18:48 50.53631 -8.35483 37046 ft 413 kts 175°
2026-05-08 18:49 50.47923 -8.34408 37040 ft 413 kts 175°
2026-05-08 18:49 50.42207 -8.33334 37039 ft 413 kts 175°
2026-05-08 18:50 50.36501 -8.32265 37033 ft 413 kts 175°
2026-05-08 18:50 50.30807 -8.31200 37040 ft 412 kts 174°
2026-05-08 18:51 50.25117 -8.30139 37037 ft 411 kts 174°
2026-05-08 18:51 50.19431 -8.29081 37026 ft 410 kts 174°
2026-05-08 18:52 50.13802 -8.28035 37027 ft 410 kts 174°
2026-05-08 18:52 50.08153 -8.26989 37024 ft 408 kts 174°
2026-05-08 18:53 50.02518 -8.25948 37014 ft 407 kts 174°
2026-05-08 18:53 49.96903 -8.24914 37020 ft 406 kts 174°
2026-05-08 18:54 49.91294 -8.23881 37014 ft 405 kts 174°
2026-05-08 18:54 49.85697 -8.22854 37009 ft 405 kts 174°
2026-05-08 18:55 49.77340 -8.21325 37009 ft 404 kts 174°
2026-05-08 18:56 49.71759 -8.20309 37000 ft 404 kts 174°
2026-05-08 18:56 49.66173 -8.19293 36997 ft 404 kts 173°
2026-05-08 18:57 49.60593 -8.18278 37003 ft 404 kts 173°
2026-05-08 18:57 49.54998 -8.17264 36994 ft 405 kts 173°
2026-05-08 18:58 49.49404 -8.16254 36989 ft 405 kts 173°
2026-05-08 18:58 49.43806 -8.15245 36983 ft 405 kts 173°
2026-05-08 18:59 49.38196 -8.14235 36988 ft 406 kts 173°
2026-05-08 18:59 49.32585 -8.13228 36982 ft 407 kts 173°
2026-05-08 19:00 49.27913 -8.12391 36977 ft 407 kts 173°
2026-05-08 19:00 49.21335 -8.11215 36979 ft 407 kts 173°
2026-05-08 19:01 49.15735 -8.10217 36978 ft 407 kts 173°
2026-05-08 19:01 49.10065 -8.09209 36962 ft 407 kts 173°
2026-05-08 19:02 49.04434 -8.08211 36964 ft 408 kts 173°
2026-05-08 19:02 48.98835 -8.07219 36963 ft 408 kts 173°
2026-05-08 19:03 48.93203 -8.06226 36952 ft 407 kts 173°
2026-05-08 19:03 48.87574 -8.05233 36944 ft 407 kts 173°
2026-05-08 19:04 48.81948 -8.04242 36944 ft 407 kts 173°
2026-05-08 19:04 48.76330 -8.03257 36946 ft 406 kts 172°
2026-05-08 19:05 48.70710 -8.02273 36942 ft 406 kts 172°
2026-05-08 19:05 48.65100 -8.01293 36945 ft 406 kts 172°
2026-05-08 19:06 48.59483 -8.00314 36938 ft 406 kts 172°
2026-05-08 19:06 48.53915 -7.98932 36944 ft 406 kts 168°
2026-05-08 19:07 48.48379 -7.97187 36928 ft 406 kts 167°
2026-05-08 19:07 48.42876 -7.95449 36924 ft 406 kts 167°
2026-05-08 19:08 48.37335 -7.93725 36923 ft 406 kts 167°
2026-05-08 19:08 48.31789 -7.92017 36923 ft 407 kts 167°
2026-05-08 19:09 48.26242 -7.90317 36913 ft 407 kts 167°
2026-05-08 19:09 48.20700 -7.88622 36915 ft 406 kts 167°
2026-05-08 19:10 48.15157 -7.86929 36917 ft 407 kts 167°
2026-05-08 19:10 48.10544 -7.85523 36911 ft 407 kts 167°
2026-05-08 19:11 48.04091 -7.83562 36899 ft 407 kts 167°
2026-05-08 19:11 47.99436 -7.82151 36899 ft 407 kts 167°
2026-05-08 19:12 47.93916 -7.80481 36903 ft 407 kts 167°
2026-05-08 19:12 47.88363 -7.78803 36894 ft 407 kts 167°
2026-05-08 19:13 47.82810 -7.77132 36893 ft 407 kts 167°
2026-05-08 19:13 47.77268 -7.75466 36893 ft 407 kts 167°
2026-05-08 19:14 47.71719 -7.73799 36884 ft 406 kts 167°
2026-05-08 19:14 47.66172 -7.72138 36882 ft 406 kts 167°
2026-05-08 19:15 47.60666 -7.70494 36882 ft 406 kts 167°
2026-05-08 19:15 47.55121 -7.68841 36879 ft 406 kts 167°
2026-05-08 19:16 47.49577 -7.67193 36879 ft 406 kts 168°
2026-05-08 19:16 47.44032 -7.65547 36874 ft 406 kts 168°
2026-05-08 19:17 47.38487 -7.63905 36872 ft 406 kts 168°
2026-05-08 19:17 47.32935 -7.62268 36879 ft 406 kts 168°
2026-05-08 19:18 47.27426 -7.60642 36871 ft 406 kts 168°
2026-05-08 19:18 47.21878 -7.59008 36872 ft 407 kts 168°
2026-05-08 19:19 47.16328 -7.57377 36861 ft 407 kts 168°
2026-05-08 19:19 47.10784 -7.55753 36871 ft 406 kts 168°
2026-05-08 19:20 47.05239 -7.54133 36865 ft 406 kts 168°
2026-05-08 19:20 46.99706 -7.52518 36869 ft 405 kts 168°
2026-05-08 19:21 46.94171 -7.50906 36870 ft 405 kts 168°
2026-05-08 19:21 46.88640 -7.49299 36869 ft 405 kts 168°
2026-05-08 19:22 46.83108 -7.47695 36873 ft 405 kts 168°
2026-05-08 19:22 46.77576 -7.46095 36871 ft 405 kts 168°
2026-05-08 19:23 46.72041 -7.44497 36875 ft 405 kts 168°
2026-05-08 19:23 46.66503 -7.42902 36874 ft 406 kts 168°
2026-05-08 19:24 46.60970 -7.41310 36871 ft 406 kts 168°
2026-05-08 19:24 46.55430 -7.39721 36876 ft 406 kts 168°
2026-05-08 19:25 46.49920 -7.38143 36875 ft 406 kts 168°
2026-05-08 19:25 46.44375 -7.36559 36874 ft 406 kts 168°
2026-05-08 19:26 46.38817 -7.34974 36874 ft 407 kts 168°
2026-05-08 19:26 46.33263 -7.33394 36876 ft 407 kts 168°
2026-05-08 19:27 46.27700 -7.31814 36880 ft 408 kts 168°
2026-05-08 19:27 46.22135 -7.30237 36878 ft 408 kts 168°
2026-05-08 19:28 46.16553 -7.28658 36877 ft 409 kts 168°
2026-05-08 19:28 46.10962 -7.27080 36871 ft 409 kts 168°
2026-05-08 19:29 46.05373 -7.25506 36881 ft 410 kts 168°
2026-05-08 19:29 45.99766 -7.23930 36882 ft 411 kts 168°
2026-05-08 19:30 45.94153 -7.22356 36882 ft 411 kts 168°
2026-05-08 19:30 45.88566 -7.20792 36883 ft 412 kts 168°
2026-05-08 19:31 45.82936 -7.19218 36886 ft 412 kts 168°
2026-05-08 19:31 45.77293 -7.17647 36883 ft 413 kts 168°
2026-05-08 19:32 45.71642 -7.16075 36880 ft 414 kts 168°
2026-05-08 19:32 45.65982 -7.14504 36884 ft 415 kts 168°
2026-05-08 19:33 45.60318 -7.12935 36887 ft 415 kts 168°
2026-05-08 19:33 45.54640 -7.11366 36883 ft 415 kts 168°
2026-05-08 19:34 45.48963 -7.09799 36879 ft 416 kts 169°
2026-05-08 19:34 45.43274 -7.08233 36884 ft 416 kts 169°
2026-05-08 19:35 45.37580 -7.06668 36889 ft 417 kts 169°
2026-05-08 19:35 45.31885 -7.05107 36884 ft 417 kts 169°
2026-05-08 19:36 45.26193 -7.03550 36885 ft 417 kts 169°
2026-05-08 19:36 45.20487 -7.01992 36882 ft 418 kts 169°
2026-05-08 19:37 45.14813 -7.00445 36877 ft 418 kts 169°
2026-05-08 19:37 45.09097 -6.98889 36891 ft 418 kts 169°
2026-05-08 19:38 45.03384 -6.97338 36888 ft 419 kts 169°
2026-05-08 19:38 44.97656 -6.95787 36886 ft 419 kts 170°
2026-05-08 19:39 44.91919 -6.94235 36888 ft 420 kts 170°
2026-05-08 19:39 44.86170 -6.92787 36882 ft 419 kts 176°
2026-05-08 19:40 44.80364 -6.93211 36892 ft 419 kts 191°
2026-05-08 19:40 44.74735 -6.95409 36885 ft 420 kts 196°
2026-05-08 19:41 44.69138 -6.97731 36890 ft 420 kts 196°
2026-05-08 19:41 44.63531 -7.00021 36888 ft 419 kts 195°
2026-05-08 19:42 44.57912 -7.02287 36892 ft 420 kts 195°
2026-05-08 19:42 44.52306 -7.04534 36892 ft 419 kts 195°
2026-05-08 19:43 44.46728 -7.06764 36892 ft 419 kts 195°
2026-05-08 19:43 44.41125 -7.09000 36893 ft 419 kts 195°
2026-05-08 19:44 44.35519 -7.11232 36889 ft 419 kts 195°
2026-05-08 19:44 44.29911 -7.13461 36891 ft 418 kts 195°
2026-05-08 19:45 44.24308 -7.15684 36889 ft 418 kts 195°
2026-05-08 19:45 44.18712 -7.17899 36890 ft 418 kts 195°
2026-05-08 19:46 44.13116 -7.20110 36889 ft 418 kts 195°
2026-05-08 19:46 44.04720 -7.23417 36883 ft 418 kts 195°
2026-05-08 19:47 43.99144 -7.25610 36890 ft 419 kts 196°
2026-05-08 19:47 43.93532 -7.27811 36892 ft 419 kts 196°
2026-05-08 19:48 43.87917 -7.30012 36886 ft 420 kts 196°
2026-05-08 19:48 43.82292 -7.32210 36875 ft 420 kts 196°
2026-05-08 19:49 43.76670 -7.34403 36891 ft 419 kts 196°
2026-05-08 19:49 43.71052 -7.36590 36882 ft 419 kts 196°
2026-05-08 19:50 43.65453 -7.38765 36874 ft 418 kts 196°
2026-05-08 19:50 43.59855 -7.40935 36879 ft 417 kts 196°
2026-05-08 19:51 43.54267 -7.43099 36892 ft 417 kts 196°
2026-05-08 19:51 43.48690 -7.45254 36887 ft 415 kts 196°
2026-05-08 19:52 43.43169 -7.47381 36892 ft 414 kts 196°
2026-05-08 19:52 43.37624 -7.49515 36884 ft 414 kts 196°
2026-05-08 19:53 43.32083 -7.51645 36888 ft 413 kts 196°
2026-05-08 19:53 43.26546 -7.53768 36888 ft 413 kts 196°
2026-05-08 19:54 43.21002 -7.55889 36889 ft 413 kts 196°
2026-05-08 19:54 43.15461 -7.58006 36876 ft 414 kts 197°
2026-05-08 19:55 43.09909 -7.60122 36895 ft 414 kts 197°
2026-05-08 19:55 43.04342 -7.62240 36889 ft 416 kts 197°
2026-05-08 19:56 42.98759 -7.64361 36886 ft 417 kts 197°
2026-05-08 19:56 42.93161 -7.66483 36888 ft 418 kts 197°
2026-05-08 19:57 42.87555 -7.68604 36880 ft 418 kts 197°
2026-05-08 19:57 42.81942 -7.70724 36877 ft 418 kts 197°
2026-05-08 19:58 42.76362 -7.72827 36875 ft 418 kts 197°
2026-05-08 19:58 42.73512 -7.73900 36445 ft 420 kts 197°
2026-05-08 19:58 42.70747 -7.74940 35966 ft 416 kts 197°
2026-05-08 19:59 42.67969 -7.75984 35406 ft 414 kts 197°
2026-05-08 19:59 42.65198 -7.77026 34834 ft 413 kts 197°
2026-05-08 19:59 42.62426 -7.78064 34252 ft 412 kts 198°
2026-05-08 19:59 42.59663 -7.79099 33630 ft 412 kts 198°
2026-05-08 20:00 42.56899 -7.80135 32937 ft 411 kts 198°
2026-05-08 20:00 42.54142 -7.81170 32296 ft 410 kts 197°
2026-05-08 20:00 42.51403 -7.82199 31641 ft 409 kts 197°
2026-05-08 20:00 42.49546 -7.82895 31231 ft 408 kts 197°
2026-05-08 20:01 42.46832 -7.83912 30794 ft 402 kts 197°
2026-05-08 20:01 42.44185 -7.84903 30335 ft 397 kts 197°
2026-05-08 20:01 42.41536 -7.85894 29879 ft 393 kts 197°
2026-05-08 20:01 42.38920 -7.86872 29361 ft 388 kts 197°
2026-05-08 20:02 42.36339 -7.87838 28902 ft 382 kts 197°
2026-05-08 20:02 42.33799 -7.88785 28448 ft 376 kts 197°
2026-05-08 20:02 42.31291 -7.89719 28009 ft 371 kts 197°
2026-05-08 20:02 42.28819 -7.90633 27554 ft 366 kts 197°
2026-05-08 20:03 42.26373 -7.91538 27115 ft 363 kts 197°
2026-05-08 20:03 42.23954 -7.92439 26673 ft 360 kts 197°
2026-05-08 20:03 42.21533 -7.93347 26254 ft 365 kts 197°
2026-05-08 20:03 42.19040 -7.94288 25818 ft 378 kts 197°
2026-05-08 20:04 42.16490 -7.95238 25348 ft 379 kts 196°
2026-05-08 20:04 42.13962 -7.96171 24887 ft 374 kts 196°
2026-05-08 20:04 42.11463 -7.97091 24438 ft 370 kts 196°
2026-05-08 20:04 42.09008 -7.97998 24001 ft 365 kts 196°
2026-05-08 20:05 42.06568 -7.98893 23571 ft 362 kts 196°
2026-05-08 20:05 42.04142 -7.99785 23062 ft 361 kts 195°
2026-05-08 20:05 42.01733 -8.00673 22582 ft 357 kts 196°
2026-05-08 20:05 41.99352 -8.01554 22132 ft 353 kts 195°
2026-05-08 20:06 41.96996 -8.02424 21690 ft 349 kts 195°
2026-05-08 20:06 41.94664 -8.03284 21278 ft 346 kts 195°
2026-05-08 20:06 41.92343 -8.04140 20857 ft 345 kts 195°
2026-05-08 20:06 41.90003 -8.05002 20447 ft 352 kts 195°
2026-05-08 20:07 41.87629 -8.05879 20014 ft 356 kts 196°
2026-05-08 20:07 41.85265 -8.06912 19523 ft 357 kts 199°
2026-05-08 20:07 41.82941 -8.08054 19091 ft 355 kts 200°
2026-05-08 20:07 41.80642 -8.09217 18652 ft 352 kts 200°
2026-05-08 20:08 41.78357 -8.10375 18202 ft 351 kts 200°
2026-05-08 20:08 41.76078 -8.11520 17725 ft 348 kts 200°
2026-05-08 20:08 41.73812 -8.12648 17268 ft 346 kts 200°
2026-05-08 20:08 41.71561 -8.13761 16829 ft 344 kts 200°
2026-05-08 20:09 41.69328 -8.14860 16395 ft 340 kts 199°
2026-05-08 20:09 41.67121 -8.15943 15970 ft 336 kts 199°
2026-05-08 20:09 41.64932 -8.17014 15557 ft 332 kts 199°
2026-05-08 20:09 41.62779 -8.18065 15160 ft 328 kts 199°
2026-05-08 20:10 41.60669 -8.19095 14762 ft 325 kts 199°
2026-05-08 20:10 41.58552 -8.20127 14355 ft 322 kts 199°
2026-05-08 20:10 41.56457 -8.21147 13955 ft 320 kts 199°
2026-05-08 20:10 41.54372 -8.22162 13545 ft 317 kts 199°
2026-05-08 20:11 41.52311 -8.23165 13115 ft 314 kts 199°
2026-05-08 20:11 41.50269 -8.24158 12716 ft 310 kts 199°
2026-05-08 20:11 41.48252 -8.25137 12315 ft 307 kts 199°
2026-05-08 20:11 41.46256 -8.26105 11932 ft 304 kts 199°
2026-05-08 20:12 41.44273 -8.27062 11543 ft 301 kts 198°
2026-05-08 20:12 41.42295 -8.27926 11166 ft 298 kts 195°